Regional Weather Roundup
Issued by NWS

Home | Current Version | Previous Version | Text Only | Print | Product List | Glossary On
Versions: 1 2 3 4 5 6 7 8 9 10 11 12 13 14 15 16 17 18 19 20 21 22 23 24 25 26 27 28 29 30 31 32 33 34 35 36 37 38 39 40 41 42 43 44 45 46 47 48 49 50
000
ASCA44 KEWX 201020
RWRMX

LATIN AMERICA AND CARIBBEAN REGIONAL WEATHER ROUNDUP
NATIONAL WEATHER SERVICE AUSTIN/SAN ANTONIO TX
400 AM CST FRI JAN 20 2017

NOTE: "FAIR" INDICATED FEW OR NO CLOUDS BELOW 12,000 FEET WITH NO
SIGNIFICANT WEATHER AND/OR OBSTRUCTIONS TO VISIBILITY.

BAJA CALIFORNIA

CITY           SKY/WX    TMP DP  RH WIND       PRES   REMARKS
S.J. DEL CABO    N/A    N/A N/A N/A MISG        N/A
TIJUANA        MOCLDY    52  48  87 CALM      29.91

NORTHWESTERN MEXICO

CITY           SKY/WX    TMP DP  RH WIND       PRES   REMARKS
HERMOSILLO     PTCLDY    54  46  76 CALM      29.93F

NORTHEASTERN MEXICO

CITY           SKY/WX    TMP DP  RH WIND       PRES   REMARKS
MONCLOVA         N/A    N/A N/A N/A MISG        N/A
MONTERREY      CLEAR     59  54  82 W7        29.71
REYNOSA          N/A    N/A N/A N/A MISG        N/A
CD. VICTORIA     N/A    N/A N/A N/A MISG        N/A

WESTERN MEXICO

CITY           SKY/WX    TMP DP  RH WIND       PRES   REMARKS
AGUASCALIENTES   N/A    N/A N/A N/A MISG        N/A
COLIMA           N/A    N/A N/A N/A MISG        N/A
DEL BAJIO      PTCLDY    48  32  53 CALM      30.18
GUADALAJARA    CLEAR     55  45  67 CALM      30.11F
MAZATLAN       PTCLDY    54  52  94 CALM      29.95F
P. VALLARTA    PTCLDY    68  66  94 NE3       29.95R
URUAPAN          N/A    N/A N/A N/A MISG        N/A
ZACATECAS        N/A    N/A N/A N/A MISG        N/A

CENTRAL MEXICO

CITY           SKY/WX    TMP DP  RH WIND       PRES   REMARKS
CUERNAVACA       N/A    N/A N/A N/A MISG        N/A
MEXICO CITY    MOCLDY    55  37  50 SW3       30.20S
MORELIA          N/A    N/A N/A N/A MISG        N/A
POZA RICA        N/A    N/A N/A N/A MISG        N/A
QUERETARO      CLEAR     50  39  66 NW6       30.18  WCI  48
S. LUIS POTOSI MOCLDY    57  30  35 SW16      30.04R
TOLUCA         PTCLDY    39  37  93 W3        30.27S

SOUTHERN MEXICO

CITY           SKY/WX    TMP DP  RH WIND       PRES   REMARKS
ACAPULCO       PTCLDY    70  68  94 CALM      29.88F
B. DE HUATULCO   N/A    N/A N/A N/A MISG        N/A
P. ESCONDIDO     N/A    N/A N/A N/A MISG        N/A
VERACRUZ         N/A    N/A N/A N/A MISG        N/A

YUCATAN PENINSULA

CITY           SKY/WX    TMP DP  RH WIND       PRES   REMARKS
CAMPECHE         N/A    N/A N/A N/A MISG        N/A
CANCUN         PTCLDY    75  68  78 SE8       29.88S
CHETUMAL         N/A    N/A N/A N/A MISG        N/A
CD. DEL CARMEN   N/A    N/A N/A N/A MISG        N/A
COZUMEL        CLEAR     72  68  88 SE6       29.86R
MERIDA         CLEAR     70  68  94 E8        29.83F
MINATITLAN       N/A    N/A N/A N/A MISG        N/A
TAPACHULA      PTCLDY    72  70  94 CALM      29.88S
VILLAHERMOSA   CLEAR     68  66  94 CALM      29.78  FOG

CENTRAL AMERICA

CITY           SKY/WX    TMP DP  RH WIND       PRES   REMARKS
MANAGUA        MOSUNNY   70  66  88 S5        29.86S

CARIBBEAN

CITY           SKY/WX    TMP DP  RH WIND       PRES   REMARKS
ARUBA          PTCLDY    77  72  83 NE7       29.89S
CURACAO        PTCLDY    79  70  73 NE13      29.92R
KINGSTON       PTCLDY    77  66  69 N7        29.92S
SAN JUAN       PTCLDY    70  63  78 CALM      29.96S
SANTO DOMINGO  PTCLDY    63  61  94 NE5       29.94S
ST. CROIX      CLEAR     64  63  94 N6        29.97
ST. KITTS      PTCLDY    70  66  88 CALM      29.94
ST. THOMAS     CLEAR     66  63  88 CALM      29.95

$$




USA.gov is the U.S. government's official web portal to all federal, state and local government web resources and services.